Tracking 30115 objects as of 9-Feb-2025
HD Live streaming from Space Station
objects crossing your sky now

COSMOS 374 DEB

Track COSMOS 374 DEB now!
10-day predictions


NORAD ID: 4668
Int'l Code: 1970-089L
Perigee: 610.7 km
Apogee: 2,030.6 km
Inclination: 63.0 °
Period: 111.9 minutes
Semi major axis: 7691 km
RCS: 0.097 m2 (small)
Launch date: October 23, 1970
Source: Commonwealth of Independent States (former USSR) (CIS)
Launch site: TYURATAM MISSILE AND SPACE COMPLEX (TTMTR)

Note: This is SATELLITE DEBRIS
Your satellite tracking list
Your tracking list is empty




NASA's NSSDC Master Catalog

Two Line Element Set (TLE):
1 04668U 70089L   25040.13032255  .00000189  00000-0  16005-3 0  9993
2 04668  62.9870 359.2887 0922989 283.2226  66.7517 12.86983294546160
Source of the keplerian elements: AFSPC